📊 Raw Sensor Data

Showing records 34776 to 34800 of 84,865 total

ID Distance (ft) Battery V Battery A Int Temp (°F) Int Humid (%) Ext Temp (°F) Solar V RSSI SNR Time Stamp
50102 15.7 3.74 0 73 42 73 5.10 -68 7 08/24/2025 09:45 AM
50101 15.7 3.84 0 72 41 73 5.10 -68 7 08/24/2025 09:30 AM
50100 15.7 4.06 0 69 42 74 5.10 -68 8 08/24/2025 09:15 AM
50099 15.5 3.74 0 65 43 67 5.10 -68 8 08/24/2025 09:00 AM
50098 15.5 3.74 0 64 43 65 5.10 -69 8 08/24/2025 08:45 AM
50097 15.5 3.85 15 64 43 64 4.50 -69 8 08/24/2025 08:30 AM
50096 15.5 3.73 0 64 42 65 5.10 -69 8 08/24/2025 08:15 AM
50095 15.4 3.81 23 63 42 63 4.50 -69 9 08/24/2025 08:00 AM
50094 15.4 3.90 10 61 43 63 4.60 -69 8 08/24/2025 07:45 AM
50093 15.3 3.81 10 60 43 62 4.50 -71 8 08/24/2025 07:30 AM
50092 15.4 3.76 0 59 43 61 4.60 -70 8 08/24/2025 07:15 AM
50091 15.5 3.58 -5 59 44 60 4.50 -70 8 08/24/2025 07:00 AM
50090 15.4 3.56 -9 59 44 60 4.20 -71 8 08/24/2025 06:45 AM
50089 15.4 3.73 -5 59 44 59 2.30 -70 9 08/24/2025 06:30 AM
50088 15.4 3.73 -5 59 44 59 0.90 -70 9 08/24/2025 06:15 AM
50087 15.4 3.73 -5 59 44 60 0.10 -70 8 08/24/2025 06:00 AM
50086 15.4 3.73 -5 59 44 60 0.10 -70 9 08/24/2025 05:45 AM
50085 15.4 3.73 -5 60 44 61 0.00 -70 8 08/24/2025 05:15 AM
50084 15.4 3.74 -5 60 44 61 0.00 -70 9 08/24/2025 05:00 AM
50083 15.3 3.74 -5 61 44 61 0.00 -70 9 08/24/2025 04:45 AM
50082 15.3 3.74 -5 61 44 61 0.00 -70 8 08/24/2025 04:30 AM
50081 15.3 3.58 -5 61 44 62 0.00 -69 8 08/24/2025 04:15 AM
50080 15.3 3.58 -5 61 44 62 0.00 -70 9 08/24/2025 04:00 AM
50079 15.3 3.58 -5 62 44 62 0.00 -71 8 08/24/2025 03:45 AM
50078 15.3 3.58 -5 62 44 63 0.00 -72 7 08/24/2025 03:15 AM